EW9551 Weather Reports


Display with metric or nautical units.
time (UTC)temp
F
wind
direction
speed
MPH
gust
MPH
rain 1hr
in
rain 24hr
in
rain mn
in
humidity
%
barometer
mb
20181117061102 44 6 0.0 0.0 0.00 0.01 0.00 95 1018.6
20181117055602 44 38 0.0 0.0 0.00 0.01 0.00 95 1018.4
20181117054103 44 39 0.0 0.0 0.00 0.01 0.00 95 1018.3
20181117052601 44 39 0.0 0.0 0.00 0.01 0.00 95 1018.3
20181117051102 44 39 0.0 0.0 0.00 0.01 0.00 95 1018.4
20181117045601 44 39 0.0 0.0 0.00 0.01 0.00 95 1018.6
20181117044100 44 39 0.0 0.0 0.00 0.01 0.00 95 1018.9
20181117042558 44 39 0.0 0.0 0.00 0.01 0.00 95 1018.9
20181117041056 44 49 0.0 0.0 0.00 0.01 0.00 95 1019.0
20181117035554 44 49 0.0 0.0 0.00 0.01 0.00 94 1019.1
20181117034052 45 49 0.0 0.0 0.00 0.01 0.00 94 1019.2
20181117032550 45 49 0.0 0.0 0.00 0.01 0.00 94 1019.4
20181117031048 45 49 0.0 0.0 0.00 0.01 0.00 94 1019.5
20181117025546 45 49 0.0 0.0 0.00 0.01 0.00 94 1019.5
20181117024044 45 49 0.0 0.0 0.00 0.01 0.00 94 1019.6
20181117022542 45 49 0.0 0.0 0.00 0.01 0.00 94 1019.8
20181117021041 45 49 0.0 0.0 0.00 0.01 0.00 94 1019.8
20181117015538 45 49 0.0 0.0 0.00 0.01 0.00 94 1019.9
20181117014035 45 49 0.0 0.0 0.00 0.01 0.00 93 1020.0
20181117012534 45 49 0.0 0.0 0.00 0.01 0.00 93 1020.1
20181117011032 45 49 0.0 0.0 0.00 0.01 0.00 92 1020.2
20181117005532 45 49 0.0 0.0 0.00 0.01 0.00 92 1020.2
20181117004032 45 51 0.0 0.0 0.00 0.01 0.00 93 1020.3
20181117002531 45 51 0.0 0.0 0.00 0.01 0.00 93 1020.5
20181117001031 45 51 0.0 0.0 0.00 0.01 0.00 94 1020.5
20181116235530 46 51 0.0 0.0 0.00 0.01 0.00 94 1020.7
20181116234031 46 51 0.0 0.0 0.00 0.01 0.00 95 1020.6
20181116232530 46 51 0.0 0.0 0.00 0.01 0.00 95 1020.7
20181116231030 46 51 0.0 0.0 0.00 0.01 0.00 95 1020.7
20181116225531 46 51 0.0 0.0 0.00 0.01 0.01 95 1020.7
20181116224032 46 51 0.0 0.0 0.00 0.01 0.01 95 1020.7
20181116222532 46 51 0.0 0.0 0.00 0.01 0.01 95 1020.6
20181116221031 46 51 0.0 0.0 0.00 0.01 0.01 95 1020.7
20181116215530 46 51 0.0 0.0 0.00 0.01 0.01 95 1020.6
20181116214030 46 51 0.0 0.0 0.00 0.01 0.01 95 1020.6
20181116212535 46 51 0.0 0.0 0.00 0.01 0.01 95 1020.7
20181116211031 46 51 0.0 0.0 0.00 0.01 0.01 95 1020.5
20181116205531 46 51 0.0 0.0 0.00 0.01 0.01 94 1020.6
20181116204031 46 51 0.0 0.0 0.00 0.01 0.01 94 1020.8
20181116202532 46 51 0.0 0.0 0.00 0.01 0.01 94 1020.7
20181116201031 46 51 0.0 0.0 0.00 0.01 0.01 94 1020.8
20181116195530 47 51 0.0 0.0 0.00 0.01 0.01 94 1020.9
20181116194031 47 51 0.0 0.0 0.00 0.01 0.01 94 1020.9
20181116192530 47 51 0.0 0.0 0.00 0.01 0.01 93 1020.9
20181116191031 47 51 0.0 0.0 0.00 0.01 0.01 93 1020.9
20181116185531 47 51 0.0 0.0 0.00 0.01 0.01 93 1021.0
20181116184031 47 51 0.0 0.0 0.00 0.01 0.01 93 1021.1
20181116182531 47 51 0.0 0.0 0.00 0.01 0.01 93 1021.0
20181116181032 47 51 0.0 0.0 0.00 0.01 0.01 92 1021.0
20181116175532 47 51 0.0 0.0 0.00 0.01 0.01 92 1021.1
20181116174031 47 51 0.0 0.0 0.00 0.01 0.01 92 1021.0
20181116172531 47 51 0.0 0.0 0.00 0.01 0.01 92 1021.1
20181116171031 47 51 0.0 0.0 0.00 0.01 0.01 92 1021.2
20181116165530 47 51 0.0 0.0 0.00 0.01 0.01 91 1021.1
20181116164031 47 51 0.0 0.0 0.00 0.01 0.01 91 1021.0
20181116162531 47 51 0.0 0.0 0.00 0.01 0.01 91 1021.0
20181116161031 47 51 0.0 0.0 0.00 0.01 0.01 91 1021.2
20181116155532 47 51 0.0 0.0 0.00 0.01 0.01 91 1021.2
20181116154031 48 51 0.0 0.0 0.00 0.01 0.01 91 1021.3
20181116152530 48 51 0.0 0.0 0.00 0.01 0.01 91 1021.3
20181116151030 48 58 0.0 0.0 0.00 0.01 0.01 91 1021.2
20181116145531 48 58 0.0 0.0 0.00 0.01 0.01 92 1021.2
20181116144032 48 58 0.0 0.0 0.00 0.01 0.01 93 1021.2
20181116142530 48 58 0.0 0.0 0.00 0.01 0.01 94 1021.2
20181116141031 48 58 0.0 0.0 0.00 0.01 0.01 95 1021.2
20181116135530 47 58 0.0 0.0 0.00 0.01 0.01 95 1021.4
20181116134030 47 63 0.0 5.0 0.00 0.01 0.01 96 1021.4
20181116132532 47 65 0.0 0.0 0.00 0.01 0.01 96 1021.4
20181116131030 47 56 0.0 0.0 0.00 0.01 0.01 96 1021.6
20181116125531 47 47 0.0 1.0 0.00 0.01 0.01 97 1021.8
20181116124031 47 52 0.0 0.0 0.00 0.01 0.01 97 1021.9
20181116122531 47 52 0.0 0.0 0.00 0.01 0.01 97 1021.8
20181116121030 47 52 0.0 0.0 0.00 0.01 0.01 97 1022.0
20181116115531 47 59 0.0 0.0 0.00 0.01 0.01 97 1021.9
20181116114029 46 59 0.0 0.0 0.00 0.01 0.01 97 1022.1
20181116112527 46 59 0.0 0.0 0.00 0.01 0.01 97 1022.2
20181116111025 46 59 0.0 0.0 0.00 0.01 0.01 97 1022.3
20181116105523 46 59 0.0 0.0 0.00 0.01 0.01 97 1022.4
20181116104023 46 59 0.0 0.0 0.00 0.01 0.01 97 1022.5
20181116102519 45 59 0.0 0.0 0.01 0.01 0.01 97 1022.7
20181116101016 45 59 0.0 0.0 0.01 0.01 0.01 97 1022.8
20181116095514 45 59 0.0 0.0 0.01 0.01 0.01 97 1022.8
20181116094013 44 59 0.0 0.0 0.01 0.01 0.01 97 1022.8
20181116092514 44 73 0.0 0.0 0.00 0.00 0.00 97 1022.8
20181116091008 44 73 0.0 0.0 0.00 0.00 0.00 96 1022.7
20181116085507 44 73 0.0 0.0 0.00 0.00 0.00 97 1022.5
20181116084005 43 56 0.0 0.0 0.00 0.00 0.00 96 1022.4
20181116082504 43 56 0.0 0.0 0.00 0.00 0.00 96 1022.5
20181116081004 43 56 0.0 0.0 0.00 0.00 0.00 96 1022.5
20181116075503 42 56 0.0 0.0 0.00 0.00 0.00 96 1022.5
20181116074003 42 56 0.0 0.0 0.00 0.00 0.00 96 1022.4
20181116072503 41 56 0.0 0.0 0.00 0.00 0.00 96 1022.2
20181116071002 41 56 0.0 0.0 0.00 0.00 0.00 96 1022.1
20181116065502 41 56 0.0 0.0 0.00 0.00 0.00 96 1022.0
20181116064003 41 56 0.0 0.0 0.00 0.00 0.00 96 1021.8
20181116062504 41 56 0.0 0.0 0.00 0.00 0.00 96 1021.9